Location: Hard
(49.9417°N, 12.0858°E)
Time: 08:08:17
(UTC+00:00)

Meteor 2-10 Rocket - Pass Details

Date: 07 June 2020
Orbit: 733 x 885 km, 81.2° (Epoch: 12 July)

Event Time Altitude Azimuth Distance (km) Brightness Sun altitude
Rises 00:25:39 0° 341° (NNW) 3,253 7.6 -15.4°
Reaches altitude 10° 00:28:13 10° 332° (NNW) 2,301 6.6 -15.3°
Maximum altitude 00:32:48 34° 269° (W) 1,222 4.4 -15.0°
Enters shadow 00:35:17 21° 221° (SW) 1,604 4.6 -14.9°
